This demonstration page uses our WeatherBlox Daily Observations layout. Learn more.

40.92945, -100.16068

Hourly Observations for June 4, 2017

Temp ( °F °C ) Dew Point ( °F °C ) Humidity (%) Winds ( mph kmh ) Pressure ( in mb ) Visibility ( mi km ) Precip ( " mm )
12:15 am 00:15 Partly Cloudy 63 17 58 14.7 86 86 NW 5 7 29.97 1015 10 16.0934 0 0
12:35 am 00:35 Clear 63 17.1 59 14.8 86 86 Calm 29.97 1015 10 16.0934 0 0
12:55 am 00:55 Partly Cloudy 62 16.9 58 14.5 86 86 Calm 29.97 1015 10 16.0934 0 0
1:15 am 01:15 Partly Cloudy 62 16.7 58 14.2 85 85 SSW 3 6 30 1016 10 16.0934 0 0
1:35 am 01:35 Clear 62 16.5 58 14.5 88 88 Calm 30 1016 10 16.0934 0 0
1:55 am 01:55 Clear 62 16.4 58 14.4 88 88 NW 5 7 30 1016 10 16.0934 0 0
2:15 am 02:15 Clear 61 16.1 58 14.5 90 90 NW 3 6 30 1016 10 16.0934 0 0
2:35 am 02:35 Clear 61 16 58 14.3 90 90 NNW 6 9 30 1016 10 16.0934 0 0
2:55 am 02:55 Clear 61 16.1 58 14.6 91 91 NNW 5 7 30 1016 10 16.0934 0 0
3:15 am 03:15 Clear 60 15.6 58 14.2 91 91 WNW 3 6 30 1016 10 16.0934 0 0
3:35 am 03:35 Clear 60 15.5 57 14.1 91 91 W 3 6 29.97 1015 10 16.0934 0 0
3:55 am 03:55 Clear 59 15.1 57 13.7 91 91 Calm 29.97 1015 10 16.0934 0 0
4:15 am 04:15 Clear 58 14.7 56 13.5 93 93 WNW 5 7 29.97 1015 10 16.0934 0 0
4:35 am 04:35 Clear 58 14.5 56 13.3 93 93 W 5 7 29.97 1015 10 16.0934 0 0
4:55 am 04:55 Clear 58 14.5 56 13.2 92 92 W 5 7 29.97 1015 10 16.0934 0 0
5:15 am 05:15 Clear 58 14.5 56 13.1 91 91 W 5 7 29.97 1015 10 16.0934 0 0
5:35 am 05:35 Clear 58 14.3 56 13.1 93 93 WNW 5 7 29.97 1015 10 16.0934 0 0
5:55 am 05:55 Clear 58 14.2 56 13.1 93 93 WNW 6 9 29.97 1015 10 16.0934 0 0
6:15 am 06:15 Sunny 58 14.3 56 13.1 93 93 W 6 9 29.97 1015 10 16.0934 0 0
6:35 am 06:35 Sunny 57 14.1 55 13 93 93 WNW 5 7 29.97 1015 10 16.0934 0 0
6:55 am 06:55 Sunny 58 14.5 56 13.3 93 93 WNW 6 9 30 1016 10 16.0934 0 0
7:15 am 07:15 Sunny 59 15 56 13.6 91 91 WNW 6 9 30 1016 10 16.0934 0 0
7:35 am 07:35 Sunny 60 15.7 57 14.1 90 90 WNW 5 7 30 1016 10 16.0934 0 0
7:55 am 07:55 Sunny 62 16.6 58 14.3 86 86 WNW 7 11 29.94 1014 10 16.0934 0 0
8:15 am 08:15 Sunny 64 17.6 59 14.8 84 84 WNW 6 9 29.94 1014 10 16.0934 0 0
8:35 am 08:35 Sunny 66 18.7 59 15 79 79 NW 5 7 29.94 1014 10 16.0934 0 0
8:55 am 08:55 Sunny 67 19.7 60 15.4 76 76 Calm 29.94 1014 10 16.0934 0 0
9:15 am 09:15 Sunny 70 21 60 15.5 71 71 Calm 29.91 1013 10 16.0934 0 0
9:35 am 09:35 Sunny 72 22.1 61 15.9 68 68 Calm 29.91 1013 10 16.0934 0 0
9:55 am 09:55 Sunny 74 23.2 62 16.6 67 67 Calm 29.91 1013 10 16.0934 0 0
10:15 am 10:15 Sunny 76 24.2 62 16.7 63 63 N 3 6 29.88 1012 10 16.0934 0 0
10:35 am 10:35 Sunny 77 25.2 62 16.4 58 58 Calm 29.88 1012 10 16.0934 0 0
10:55 am 10:55 Sunny 78 25.8 62 16.5 57 57 Calm 29.88 1012 10 16.0934 0 0
11:15 am 11:15 Sunny 80 26.6 62 16.9 55 55 Calm 29.88 1012 10 16.0934 0 0
11:35 am 11:35 Sunny 81 27 62 16.4 52 52 Calm 29.85 1011 10 16.0934 0 0
11:55 am 11:55 Sunny 81 27.3 60 15.5 49 49 NNW 3 6 29.85 1011 10 16.0934 0 0
12:15 pm 12:15 Sunny 82 27.6 56 13.1 41 41 Calm 29.85 1011 10 16.0934 0 0
12:35 pm 12:35 Sunny 82 28 55 12.8 39 39 Calm 29.85 1011 10 16.0934 0 0
12:55 pm 12:55 Sunny 83 28.3 54 12.1 37 37 NE 3 6 29.85 1011 10 16.0934 0 0
1:15 pm 13:15 Sunny 83 28.3 55 12.5 38 38 Calm 29.83 1010 10 16.0934 0 0
1:35 pm 13:35 Sunny 84 28.7 57 14 41 41 ENE 6 9 29.83 1010 10 16.0934 0 0
1:55 pm 13:55 Sunny 84 28.8 56 13.3 39 39 Calm 29.83 1010 10 16.0934 0 0
2:15 pm 14:15 Sunny 84 29 55 13 37 37 ENE 5 7 29.83 1010 10 16.0934 0 0
2:35 pm 14:35 Sunny 85 29.3 55 12.6 36 36 E 3 6 29.83 1010 10 16.0934 0 0
2:55 pm 14:55 Sunny 85 29.5 53 11.4 33 33 Calm 29.8 1009 10 16.0934 0 0
3:15 pm 15:15 Sunny 85 29.7 54 12.2 34 34 Calm 29.8 1009 10 16.0934 0 0
3:35 pm 15:35 Sunny 85 29.6 53 11.6 33 33 Calm 29.8 1009 10 16.0934 0 0
3:55 pm 15:55 Partly Cloudy 86 29.8 55 12.6 35 35 NNE 3 6 29.8 1009 10 16.0934 0 0
4:15 pm 16:15 Partly Cloudy 86 29.9 53 11.4 32 32 ESE 3 6 29.74 1007 10 16.0934 0 0
4:35 pm 16:35 Sunny 86 30.1 54 12 33 33 NW 3 6 29.74 1007 10 16.0934 0 0
4:55 pm 16:55 Sunny 86 30.1 50 10.2 29 29 Calm 29.74 1007 10 16.0934 0 0
5:15 pm 17:15 Sunny 86 30.1 51 10.4 29 29 E 3 6 29.74 1007 10 16.0934 0 0
5:35 pm 17:35 Sunny 87 30.3 50 10.2 29 29 SSE 3 6 29.74 1007 10 16.0934 0 0
5:55 pm 17:55 Sunny 86 30.1 51 10.5 30 30 Calm 29.74 1007 10 16.0934 0 0
6:15 pm 18:15 Sunny 86 30 51 10.4 30 30 Calm 29.74 1007 10 16.0934 0 0
6:35 pm 18:35 Sunny 86 29.8 55 12.6 35 35 E 7 11 29.74 1007 10 16.0934 0 0
6:55 pm 18:55 Sunny 85 29.7 52 11.1 32 32 Calm 29.74 1007 10 16.0934 0 0
7:15 pm 19:15 Sunny 86 30 52 11.1 31 31 Calm 29.74 1007 10 16.0934 0 0
7:35 pm 19:35 Sunny 85 29.4 58 14.2 39 39 ENE 3 6 29.71 1006 10 16.0934 0 0
7:55 pm 19:55 Sunny 83 28.1 61 16 48 48 ENE 5 7 29.77 1008 10 16.0934 0 0
8:15 pm 20:15 Sunny 82 27.6 60 15.3 47 47 ENE 3 6 29.77 1008 10 16.0934 0 0
8:35 pm 20:35 Sunny 80 26.6 62 16.8 55 55 ENE 5 7 29.77 1008 10 16.0934 0 0
8:55 pm 20:55 Sunny 79 26.3 59 15 50 50 E 5 7 29.77 1008 10 16.0934 0 0
9:15 pm 21:15 Clear 78 25.6 60 15.3 53 53 ENE 3 6 29.8 1009 10 16.0934 0 0
9:35 pm 21:35 Clear 76 24.2 62 16.6 63 63 ENE 5 7 29.8 1009 10 16.0934 0 0
9:55 pm 21:55 Clear 74 23.6 61 16 63 63 ENE 3 6 29.8 1009 10 16.0934 0 0
10:15 pm 22:15 Clear 72 22.4 62 16.5 69 69 Calm 29.83 1010 10 16.0934 0 0
10:35 pm 22:35 Clear 72 22.4 60 15.6 66 66 Calm 29.83 1010 10 16.0934 0 0
10:55 pm 22:55 Clear 72 22.1 59 15.1 65 65 Calm 29.83 1010 10 16.0934 0 0
11:15 pm 23:15 Clear 71 21.6 59 15.2 67 67 Calm 29.83 1010 10 16.0934 0 0
11:35 pm 23:35 Clear 69 20.4 61 16 76 76 Calm 29.83 1010 10 16.0934 0 0
11:55 pm 23:55 Clear 68 20 60 15.5 75 75 SW 3 6 29.85 1011 10 16.0934 0 0

Powered by AerisWeather